This is the latest recevied weather packets stored in our database for station/object IU0KRR-10. If no packets are shown the sender has not sent any weather packets the latest 1 day(s).
| Time | Temp. | Humidity | Pressure | Rain* | Wind** | Luminosity | Snow |
|---|---|---|---|---|---|---|---|
| 1788610563 | 28.33° C | 27% | 878.9 hPa | - | - | - | - |
| 1788609661 | 27.78° C | 27% | 879 hPa | - | - | - | - |
| 1788608760 | 27.78° C | 28% | 879 hPa | - | - | - | - |
| 1788607859 | 27.22° C | 27% | 879 hPa | - | - | - | - |
| 1788606958 | 26.67° C | 30% | 878.8 hPa | - | - | - | - |
| 1788606058 | 26.67° C | 31% | 878.9 hPa | - | - | - | - |
| 1788605158 | 26.67° C | 36% | 879 hPa | - | - | - | - |
| 1788604358 | 26.67° C | 31% | 878.8 hPa | - | - | - | - |
| 1788604258 | 26.67° C | 31% | 878.8 hPa | - | - | - | - |
| 1788603357 | 27.22° C | 31% | 879 hPa | - | - | - | - |
| 1788602457 | 27.22° C | 30% | 878.9 hPa | - | - | - | - |
| 1788601557 | 26.67° C | 31% | 878.8 hPa | - | - | - | - |
| 1788600657 | 26.11° C | 30% | 878.9 hPa | - | - | - | - |
| 1788599756 | 25.56° C | 32% | 878.7 hPa | - | - | - | - |
| 1788598855 | 25° C | 34% | 878.8 hPa | - | - | - | - |
| 1788597954 | 24.44° C | 36% | 878.8 hPa | - | - | - | - |
| 1788597052 | 24.44° C | 37% | 878.8 hPa | - | - | - | - |
| 1788596151 | 23.89° C | 38% | 878.7 hPa | - | - | - | - |
| 1788595250 | 23.89° C | 39% | 878.5 hPa | - | - | - | - |
| 1788594350 | 23.89° C | 40% | 878.6 hPa | - | - | - | - |
| 1788593449 | 23.33° C | 42% | 878.4 hPa | - | - | - | - |
| 1788592549 | 23.33° C | 42% | 878.3 hPa | - | - | - | - |
| 1788591648 | 22.78° C | 44% | 878.2 hPa | - | - | - | - |
| 1788590747 | 22.22° C | 43% | 878 hPa | - | - | - | - |
| 1788589847 | 21.67° C | 44% | 878.1 hPa | - | - | - | - |
* Rain since midnight (hover to see other rain measurements)
** Current wind speed in m/s (hover to see current wind gust speed)